TimeMST,TemperatureF,Dew PointF,Humidity,Sea Level PressureIn,VisibilityMPH,Wind Direction,Wind SpeedMPH,Gust SpeedMPH,PrecipitationIn,Events,Conditions,WindDirDegrees,DateUTC
1:45 AM,62,58,81,29.98,2,SSE,2.2,,,,,150,2012-12-12 08:45:00
4:50 AM,58,55,86,29.98,2,South,2.2,,,,,180,2012-12-12 11:50:00
6:02 AM,50.0,48.2,94,30.00,10.0,South,4.6,-,N/A,,Clear,180,2012-12-12 13:02:00
6:45 AM,50.0,46.4,87,30.01,10.0,SSW,3.5,-,N/A,,Clear,200,2012-12-12 13:45:00
7:40 AM,51.8,48.2,88,30.07,10.0,South,3.5,-,N/A,,Clear,180,2012-12-12 14:40:00
7:50 AM,59,55,83,30.00,12,SSW,2.2,,,,,200,2012-12-12 14:50:00
8:42 AM,60.8,55.4,82,30.02,10.0,Calm,Calm,-,N/A,,Clear,0,2012-12-12 15:42:00
9:42 AM,69.8,55.4,60,30.03,10.0,NNW,3.5,-,N/A,,Clear,340,2012-12-12 16:42:00
10:40 AM,73.4,59.0,61,30.08,10.0,North,6.9,-,N/A,,Clear,350,2012-12-12 17:40:00
10:50 AM,77,61,48,30.01,19,NW,2.2,,,,,320,2012-12-12 17:50:00
11:43 AM,75.2,59.0,57,30.01,12.0,NNW,6.9,-,N/A,,Clear,330,2012-12-12 18:43:00
12:40 PM,77.0,57.2,50,29.98,12.0,NW,8.1,-,N/A,,Clear,320,2012-12-12 19:40:00
1:42 PM,77.0,57.2,50,30.01,12.0,NNW,8.1,-,N/A,,Clear,340,2012-12-12 20:42:00
1:50 PM,80,62,43,29.96,19,NW,8.9,,,,Scattered Clouds,320,2012-12-12 20:50:00
2:40 PM,78.8,51.8,39,29.94,12.0,NNE,9.2,-,N/A,,Partly Cloudy,20,2012-12-12 21:40:00
3:40 PM,77.0,57.2,50,29.93,12.0,NNW,11.5,-,N/A,,Clear,330,2012-12-12 22:40:00
4:40 PM,77.0,57.2,50,29.98,12.0,North,8.1,-,N/A,,Clear,360,2012-12-12 23:40:00
4:50 PM,78,61,47,29.93,2,NW,6.7,,,,,320,2012-12-12 23:50:00
5:44 PM,71.6,57.2,60,29.95,12.0,North,3.5,-,N/A,,Clear,350,2012-12-13 00:44:00
6:40 PM,69.8,57.2,64,29.96,12.0,Calm,Calm,-,N/A,,Clear,0,2012-12-13 01:40:00
7:43 PM,66.2,57.2,73,30.03,10.0,West,4.6,-,N/A,,Clear,280,2012-12-13 02:43:00
7:50 PM,72,64,70,29.97,2,SSE,2.2,,,,,150,2012-12-13 02:50:00
8:44 PM,64.4,57.2,77,30.00,10.0,SSE,2.3,-,N/A,,Clear,160,2012-12-13 03:44:00
9:42 PM,60.8,55.4,82,30.00,10.0,SE,3.5,-,N/A,,Clear,140,2012-12-13 04:42:00
10:44 PM,68,62,75,29.98,2,ESE,2.2,,,,,120,2012-12-13 05:44:00